Aurora, IL

7:20 PM CDT on April 28, 2017 (GMT -0500)
Aurora Municipal

Weather History for KARR - May, 2013

Change the Weather History Date:

Sunday, May 26, 2013

  Actual Average Record
Temperature  
Mean Temperature 53 °F 62 °F  
Max Temperature 63 °F 74 °F 90 °F (2012)
Min Temperature 42 °F 51 °F 37 °F (2002)
Degree Days  
Heating Degree Days 12 5  
Month to date heating degree days 177 209  
Since 1 July heating degree days 6650 6715  
Cooling Degree Days 0 2  
Month to date cooling degree days 50 26  
Year to date cooling degree days 57 29  
Growing Degree Days 2 (Base 50)    
Moisture  
Dew Point 46 °F    
Average Humidity 71    
Maximum Humidity 86    
Minimum Humidity 55    
Precipitation  
Precipitation 0.07 in 0.13 in 1.34 in (2008)
Month to date precipitation 2.29 3.58  
Year to date precipitation 16.01 12.20  
Sea Level Pressure  
Sea Level Pressure 30.23 in    
Wind  
Wind Speed 8 mph (ESE)    
Max Wind Speed 16 mph    
Max Gust Speed 21 mph    
Visibility 9 miles    
Events Rain    
T = Trace of Precipitation, MM = Missing Value Source: NWS Daily Summary

Daily Weather History Graph

Daily Weather History Graph

Search for Another Location

Airport or City:

Trip Planner

Search our weather history database for the weather conditions in past years. The results will help you decide how hot, cold, wet, or windy it might be!

Date:

Astronomy

May. 26, 2013 Rise Set
Actual Time 5:24 AM CDT 8:17 PM CDT
Civil Twilight 4:51 AM CDT 8:50 PM CDT
Nautical Twilight 4:10 AM CDT 9:32 PM CDT
Astronomical Twilight 3:22 AM CDT 10:20 PM CDT
Moon 10:04 PM CDT (5/26) 6:54 AM CDT (5/26)
Length of Visible Light 15h 58m
Length of Day
14h 52m
Waning Gibbous, 96% of the Moon is Illuminated
May 26
Waning Gibbous
May 31
Last Quarter
Jun 8
New
Jun 16
First Quarter
Jun 23
Full

Hourly Weather History & Observations

Time (CDT) Temp. Windchill Dew Point Humidity Pressure Visibility Wind Dir Wind Speed Gust Speed Precip Events Conditions
12:52 AM 46.9 °F - 39.9 °F 77% 30.30 in 10.0 mi NE 6.9 mph - N/A   Clear
1:52 AM 45.0 °F 41.2 °F 37.0 °F 74% 30.28 in 10.0 mi ENE 6.9 mph - N/A   Clear
2:52 AM 43.0 °F 38.2 °F 37.0 °F 80% 30.27 in 10.0 mi NE 8.1 mph - N/A   Clear
3:52 AM 43.0 °F - 36.0 °F 76% 30.26 in 10.0 mi Calm Calm - N/A   Clear
4:52 AM 43.0 °F 41.3 °F 36.0 °F 76% 30.28 in 10.0 mi ENE 3.5 mph - N/A   Clear
5:52 AM 43.0 °F - 37.0 °F 80% 30.27 in 10.0 mi Calm Calm - N/A   Clear
6:52 AM 46.0 °F - 39.9 °F 79% 30.30 in 10.0 mi Calm Calm - N/A   Partly Cloudy
7:52 AM 51.1 °F - 42.1 °F 71% 30.29 in 10.0 mi East 5.8 mph - N/A   Clear
8:52 AM 55.0 °F - 44.1 °F 67% 30.29 in 10.0 mi SE 9.2 mph - N/A   Scattered Clouds
9:52 AM 57.9 °F - 45.0 °F 62% 30.28 in 10.0 mi SE 8.1 mph - N/A   Partly Cloudy
10:52 AM 61.0 °F - 45.0 °F 56% 30.28 in 10.0 mi SSE 9.2 mph - N/A   Overcast
11:52 AM 61.0 °F - 44.1 °F 54% 30.28 in 10.0 mi SSE 12.7 mph - N/A   Overcast
12:52 PM 61.0 °F - 44.1 °F 54% 30.26 in 10.0 mi SSE 11.5 mph - N/A   Overcast
1:52 PM 60.1 °F - 48.0 °F 64% 30.25 in 10.0 mi SSE 13.8 mph - 0.00 in   Overcast
2:52 PM 61.0 °F - 48.0 °F 62% 30.26 in 10.0 mi South 10.4 mph - N/A   Overcast
3:52 PM 62.1 °F - 48.0 °F 60% 30.21 in 10.0 mi SE 11.5 mph - N/A   Overcast
4:52 PM 62.1 °F - 50.0 °F 65% 30.19 in 10.0 mi ESE 8.1 mph - 0.00 in   Overcast
5:29 PM 59.0 °F - 51.8 °F 77% 30.19 in 2.5 mi SE 8.1 mph - 0.04 in Rain Light Rain
5:50 PM 59.0 °F - 51.8 °F 77% 30.19 in 8.0 mi ESE 4.6 mph - 0.05 in Rain Light Rain
5:52 PM 59.0 °F - 52.0 °F 78% 30.20 in 9.0 mi SE 3.5 mph - 0.05 in Rain Light Rain
6:52 PM 59.0 °F - 55.0 °F 87% 30.17 in 8.0 mi ESE 5.8 mph - 0.00 in   Mostly Cloudy
7:52 PM 57.9 °F - 54.0 °F 87% 30.15 in 8.0 mi ESE 10.4 mph - N/A   Partly Cloudy
8:52 PM 57.9 °F - 53.1 °F 84% 30.15 in 10.0 mi East 10.4 mph - 0.00 in Rain Light Rain
9:52 PM 57.0 °F - 53.1 °F 87% 30.15 in 10.0 mi ESE 11.5 mph - 0.02 in Rain Light Rain
10:52 PM 57.0 °F - 53.1 °F 87% 30.14 in 9.0 mi East 10.4 mph - 0.00 in   Overcast
11:20 PM 57.2 °F - 53.6 °F 88% 30.13 in 10.0 mi East 10.4 mph - N/A   Overcast
11:52 PM 57.0 °F - 53.1 °F 87% 30.13 in 9.0 mi ESE 11.5 mph - N/A   Overcast